36P/Whipple (2011)

Japanese version
Home page
Updated on March 16, 2014

---------------------------------------------------------------------

* Profile

* Pictures

* Orbital Elements

The following orbital elements are taken from MPC 75716:

Epoch 2011 Dec. 25.0 TT = JDT 2455920.5
T 2011 Dec. 29.5886 TT                                  MPC
q   3.087890             (2000.0)            P               Q
n   0.1154111      Peri.  201.5974      +0.9138575      -0.4059713
a   4.178025       Node   182.3910      +0.3931999      +0.8892507
e   0.260921       Incl.    9.9310      +0.1012834      +0.2107615
P   8.54
From 213 observations 1985-2011, mean residual 0".6.

* Magnitudes Graph

        m1 = 8.0 + 5 log d + 17.0 log r

---------------------------------------------------------------------

The orbital elements are published at the MPC Ephemerides and Orbital Elements.
The magnitudes graphs are made with Comet for Windows.

---------------------------------------------------------------------

Copyright(C) Seiichi Yoshida (comet@aerith.net). All rights reserved.